FW9014 Weather Reports


Display with metric or nautical units.
time (UTC)temp
F
wind
direction
speed
MPH
gust
MPH
rain 1hr
in
rain 24hr
in
rain mn
in
humidity
%
barometer
mb
20260902223058 75 0 0.0 0.0 0.04 0.90 0.77 93 1013.7
20260902221617 77 74 4.0 16.0 0.01 0.86 0.73 90 1013.3
20260902220100 78 215 18.0 34.0 0.01 0.86 0.73 88 1013.5
20260902214556 77 205 23.0 36.0 0.02 0.86 0.73 93 1013.4
20260902213105 77 297 14.0 17.0 0.01 0.85 0.72 94 1014.0
20260902211611 78 192 22.0 28.0 0.01 0.85 0.72 94 1012.9
20260902210100 77 264 18.0 34.0 0.02 0.85 0.72 92 1013.1
20260902204558 76 284 24.0 35.0 0.02 0.96 0.71 94 1013.6
20260902203052 75 349 21.0 34.0 0.02 0.96 0.71 93 1014.2
20260902201631 82 317 26.0 35.0 0.02 0.95 0.70 81 1013.9
20260902200107 86 192 13.0 18.0 0.02 0.95 0.70 80 1013.0
20260902194553 86 198 12.0 18.0 0.02 0.98 0.69 81 1012.9
20260902193102 86 209 15.0 20.0 0.02 0.98 0.69 80 1013.1
20260902191601 85 198 14.0 19.0 0.02 0.97 0.68 82 1013.4
20260902190101 85 214 13.0 18.0 0.02 0.97 0.68 83 1013.5
20260902184556 85 211 13.0 18.0 0.01 0.96 0.67 82 1013.7
20260902183105 84 209 14.0 20.0 0.02 0.96 0.67 83 1013.8
20260902181615 83 209 15.0 21.0 0.01 0.95 0.66 85 1014.1
20260902180106 83 198 16.0 22.0 0.02 0.95 0.66 87 1014.3
20260902174600 82 211 18.0 21.0 0.01 0.94 0.65 89 1014.6
20260902173054 82 186 15.0 24.0 0.01 0.94 0.65 90 1014.7
20260902171610 82 227 18.0 28.0 0.02 0.94 0.65 85 1015.0
20260902170103 81 224 23.0 29.0 0.01 0.93 0.64 86 1015.0
20260902164610 81 243 19.0 30.0 0.02 0.93 0.64 83 1015.4
20260902163053 81 239 24.0 30.0 0.02 0.93 0.64 81 1015.3
20260902161605 81 226 21.0 28.0 0.02 0.92 0.63 88 1015.3
20260902154613 80 225 19.0 27.0 0.02 0.91 0.62 92 1015.6
20260902153101 80 220 22.0 27.0 0.03 0.91 0.62 93 1014.8
20260902151618 78 214 17.0 23.0 0.03 0.90 0.61 93 1014.9
20260902150058 78 221 20.0 25.0 0.03 0.89 0.60 94 1014.7
20260902144552 77 235 20.0 24.0 0.04 0.89 0.60 94 1014.7
20260902143101 77 221 20.0 24.0 0.04 0.88 0.58 94 1014.8
20260902141555 77 218 18.0 24.0 0.05 0.87 0.58 94 1014.5
20260902134606 77 255 15.0 24.0 0.06 0.85 0.56 94 1014.1
20260902133102 77 254 14.0 20.0 0.07 0.84 0.55 95 1014.2
20260902131600 77 243 15.0 23.0 0.07 0.82 0.52 94 1013.9
20260902130059 77 256 16.0 23.0 0.08 0.81 0.52 94 1013.8
20260902124602 77 247 18.0 25.0 0.09 0.79 0.50 93 1013.7
20260902123057 77 250 19.0 25.0 0.10 0.77 0.48 93 1013.2
20260902121604 78 277 19.0 30.0 0.11 0.75 0.46 94 1012.9
20260902120057 78 288 24.0 32.0 0.12 0.73 0.44 94 1012.2
20260902114603 77 290 26.0 33.0 0.12 0.70 0.41 94 1012.1
20260902113058 78 291 24.0 33.0 0.12 0.67 0.38 94 1011.8
20260902111558 78 290 28.0 34.0 0.12 0.64 0.35 94 1011.5
20260902110059 77 283 31.0 45.0 0.12 0.61 0.32 95 1011.0
20260902104600 77 260 32.0 49.0 0.12 0.58 0.29 95 1010.7
20260902103107 77 273 36.0 46.0 0.11 0.55 0.26 95 1010.5
20260902101559 77 268 37.0 44.0 0.08 0.51 0.22 94 1010.2
20260902100054 77 257 35.0 46.0 0.07 0.49 0.20 94 1009.5
20260902094601 77 264 36.0 55.0 0.05 0.46 0.17 95 1009.2
20260902093133 77 260 33.0 46.0 0.04 0.44 0.15 94 1008.9
20260902091604 78 270 38.0 49.0 0.04 0.43 0.14 94 1008.5
20260902084600 78 285 39.0 50.0 0.03 0.41 0.12 94 1007.6
20260902083054 78 299 41.0 53.0 0.03 0.40 0.11 93 1007.3
20260902081617 79 291 39.0 54.0 0.02 0.39 0.10 94 1006.8
20260902080058 78 339 35.0 45.0 0.03 0.39 0.10 93 1006.6
20260902074600 78 323 35.0 53.0 0.03 0.38 0.09 93 1006.6
20260902073058 78 344 36.0 49.0 0.03 0.37 0.08 93 1006.3
20260902071604 78 344 39.0 54.0 0.04 0.37 0.08 93 1006.1
20260902064617 77 50 22.0 40.0 0.04 0.35 0.06 94 1006.9
20260902063057 77 15 19.0 40.0 0.04 0.34 0.05 94 1007.4
20260902060111 77 26 13.0 25.0 0.03 0.32 0.03 93 1008.4
20260902054559 77 17 8.0 26.0 0.03 0.31 0.02 93 1009.4
20260902053056 77 35 11.0 24.0 0.02 0.30 0.01 93 1009.5
20260902051600 77 360 13.0 23.0 0.04 0.29 0.00 93 1009.8
20260902050112 77 88 10.0 18.0 0.07 0.29 0.00 93 1010.3
20260902044609 77 67 10.0 17.0 0.07 0.28 0.28 93 1010.6
20260902043056 77 74 6.0 17.0 0.07 0.28 0.28 93 1011.0
20260902041558 77 360 6.0 25.0 0.05 0.25 0.25 92 1011.2
20260902040112 78 19 9.0 20.0 0.02 0.22 0.22 92 1011.5
20260902034601 78 360 12.0 17.0 0.01 0.21 0.21 92 1011.7
20260902033103 77 5 7.0 20.0 0.03 0.21 0.21 92 1011.9
20260902031602 77 12 13.0 20.0 0.04 0.20 0.20 91 1012.1
20260902030055 77 5 9.0 16.0 0.04 0.20 0.20 91 1012.4
20260902024606 77 45 6.0 14.0 0.04 0.20 0.20 89 1012.4
20260902023056 78 15 7.0 13.0 0.02 0.18 0.18 87 1012.5
20260902021601 80 36 5.0 11.0 0.00 0.16 0.16 83 1012.6
20260902014556 80 9 3.0 10.0 0.00 0.16 0.16 82 1012.6
20260902013053 80 132 1.0 8.0 0.00 0.16 0.16 83 1012.5
20260902011559 80 57 3.0 12.0 0.00 0.16 0.16 84 1012.5
20260902010100 80 61 2.0 7.0 0.00 0.16 0.16 85 1012.4
20260902004559 80 93 2.0 8.0 0.00 0.16 0.16 86 1012.5
20260902003054 80 23 1.0 5.0 0.00 0.16 0.16 87 1012.5
20260902001557 80 5 1.0 5.0 0.00 0.16 0.16 88 1012.9
20260902000109 80 0 0.0 4.0 0.00 0.16 0.16 89 1013.0
20260901234555 80 32 1.0 7.0 0.00 0.16 0.16 89 1013.1
20260901233055 80 0 0.0 4.0 0.00 0.16 0.16 90 1013.4
20260901231557 80 11 0.0 3.0 0.00 0.16 0.16 90 1013.3
20260901230058 79 25 1.0 4.0 0.00 0.16 0.16 90 1013.4
20260901224553 79 0 1.0 5.0 0.00 0.16 0.16 89 1013.5